Location: Andershausen
(51.8462°N, 9.8595°E)
Time: 02:06:37
(UTC+00:00)

Cosmos 2297 Rocket - Pass Details

Date: 18 November 2025
Orbit: 837 x 844 km, 71.0° (Epoch: 13 December)

Event Time Altitude Azimuth Distance (km) Brightness Sun altitude
Rises 16:42:10 0° 313° (NW) 3,408 5.8 -11.6°
Reaches altitude 10° 16:47:02 10° 350° (N) 2,474 4.6 -12.3°
Maximum altitude 16:48:24 11° 4° (N) 2,417 4.4 -12.5°
Drops below altitude 10° 16:49:47 10° 18° (NNE) 2,475 4.3 -12.7°
Enters shadow 16:51:13 - 32° (NNE) 2,652 4.4 -12.9°
